Regional Weather Roundup
Issued by NWS State College, PA

Home | Current Version | Previous Version | Graphics & Text | Print | Product List | Glossary Off
Versions: 1 2 3 4 5 6 7 8 9 10 11 12 13 14 15 16 17 18 19 20 21 22 23 24 25 26 27 28 29 30 31 32 33 34 35 36 37 38 39 40 41 42 43 44 45 46 47 48 49 50

000
ASUS41 KCTP 201103
RWRCTP

REGIONAL WEATHER ROUNDUP
NATIONAL WEATHER SERVICE STATE COLLEGE PA
600 AM EST FRI JAN 20 2017

Note: "fair" indicates few or no clouds below 12,000 feet with no
significant weather and/or obstructions to visibility.

* = STATION THAT DOES NOT REPORT PRECIPITATION /E.G. RAIN...SNOW...ETC/
    THUNDER OR FOG.

PAZ002>004-007>009-013>016-020>023-029>032-201200-
WESTERN PENNSYLVANIA

CITY           SKY/WX    TMP DP  RH WIND       PRES   REMARKS
ERIE           PTCLDY    33  30  88 CALM      29.77F
MEADVILLE      CLOUDY    35  30  82 E8        29.74F
FRANKLIN*        N/A     34  28  80 E10       29.77F
NEW CASTLE     LGT RAIN  36  35  96 E7        29.75F
BEAVER COUNTY  NOT AVBL
BUTLER*        CLOUDY    37  32  81 E9        29.77F
PITTSBURGH INT LGT RAIN  37  35  92 SE3       29.74F
PITTSBURGH     LGT RAIN  40  33  76 E6        29.74F
INDIANA*       CLOUDY    43  36  75 SE9       29.81F
LATROBE        LGT RAIN  45  36  70 E14       29.76F
WASHINGTON CO* CLOUDY    34  34 100 CALM      29.75S
$$

PAZ004>006-010>012-017>019-024>028-033>037-041-042-045-046-049>053-201200-
CENTRAL PENNSYLVANIA

CITY           SKY/WX    TMP DP  RH WIND       PRES   REMARKS
BRADFORD       CLOUDY    32  32 100 SE8       29.80F FOG
DUBOIS         CLOUDY    32  29  88 E9        29.80F
CLEARFIELD     CLOUDY    31  30  96 NE10      29.85F
JOHNSTOWN      CLOUDY    37  34  89 SE7       29.80F
ALTOONA        CLOUDY    33  31  92 NE3       29.87F FOG
STATE COLLEGE  CLEAR     28  28 100 CALM      29.90R FOG
WILLIAMSPORT   FOG       30  29  96 CALM      29.95F VSB 1/4
SELINSGROVE    CLOUDY    27  27 100 CALM      29.96F FOG
FT INDIANTOWN  CLOUDY    30  30 100 CALM      29.97F
CAPITAL CITY   CLOUDY    35  31  85 E5        29.97S
HARRISBURG     CLOUDY    33  32  96 E3        29.97S
YORK           CLOUDY    32  32 100 SE3       29.96S FOG
$$

PAZ038>040-043-044-047-048-054-055-060>062-067>071-201200-
EASTERN PENNSYLVANIA

CITY           SKY/WX    TMP DP  RH WIND       PRES   REMARKS
SCRANTON       CLOUDY    36  32  85 VRB3      29.93F
MOUNT POCONO   CLOUDY    32  29  88 SE5       29.90F
ALLENTOWN      FOG       29  26  89 CALM      29.98F VSB 3/4
QUAKERTOWN*    CLOUDY    25  23  93 CALM      29.99S
READING        CLOUDY    30  30 100 CALM      29.98S
LANCASTER      CLOUDY    32  32 100 SE3       29.98S
COATESVILLE      N/A    N/A N/A N/A MISG        N/A
POTTSTOWN      CLOUDY    26  26 100 CALM      30.00S FOG
BLUE BELL      CLOUDY    28  28 100 CALM      29.98F
DOYLESTOWN     CLOUDY    29  27  92 CALM      29.98F
WILLOW GROVE   NOT AVBL
NORTH PHILA    CLOUDY    30  28  92 NE3       30.01S FOG
PHILADELPHIA   CLOUDY    33  31  92 CALM      30.01S
$$




USA.gov is the U.S. government's official web portal to all federal, state and local government web resources and services.